Schneifelwetter: Wetterstation Hallschlag, 537 m . NN
Wetterdaten: Mittwoch, 09.11.2011
Datum Zeit Temp. A. Feuchte A. Luftdruck Regen Wind Richtung Richtung Sonnenschein Helligkeit T Regen Taupunkt Windchill
09.11.2011 00:00 3,4 C 97 % 1017 hPa 0,0 l/m 0,0 km/h (0 Bft) N-NO 30 0 min 0 lux 0 min 3,0 C 3,4 C
09.11.2011 00:15 3,1 C 97 % 1017 hPa 0,0 l/m 0,0 km/h (0 Bft) N-NO 30 0 min 0 lux 0 min 2,7 C 3,1 C
09.11.2011 00:30 2,8 C 97 % 1017 hPa 0,0 l/m 0,0 km/h (0 Bft) N-NO 30 0 min 0 lux 0 min 2,4 C 2,8 C
09.11.2011 00:45 2,6 C 97 % 1016 hPa 0,0 l/m 0,0 km/h (0 Bft) N-NO 30 0 min 0 lux 0 min 2,2 C 2,6 C
09.11.2011 01:00 2,4 C 97 % 1016 hPa 0,0 l/m 0,0 km/h (0 Bft) N-NO 30 0 min 0 lux 0 min 2,0 C 2,4 C
09.11.2011 01:15 2,2 C 97 % 1016 hPa 0,0 l/m 0,0 km/h (0 Bft) N-NO 30 0 min 0 lux 0 min 1,8 C 2,2 C
09.11.2011 01:30 2,1 C 98 % 1016 hPa 0,0 l/m 0,0 km/h (0 Bft) N-NO 30 0 min 0 lux 0 min 1,8 C 2,1 C
09.11.2011 01:45 2,2 C 98 % 1016 hPa 0,0 l/m 0,0 km/h (0 Bft) N-NO 30 0 min 0 lux 0 min 1,9 C 2,2 C
09.11.2011 02:00 2,1 C 98 % 1016 hPa 0,0 l/m 0,0 km/h (0 Bft) N-NO 30 0 min 0 lux 0 min 1,8 C 2,1 C
09.11.2011 02:15 2,0 C 98 % 1016 hPa 0,0 l/m 0,1 km/h (0 Bft) N-NO 30 0 min 0 lux 0 min 1,7 C 2,0 C
09.11.2011 02:30 1,7 C 97 % 1016 hPa 0,0 l/m 0,0 km/h (0 Bft) N-NO 30 0 min 0 lux 0 min 1,3 C 1,7 C
09.11.2011 02:45 1,4 C 97 % 1016 hPa 0,0 l/m 0,0 km/h (0 Bft) N-NO 30 0 min 0 lux 0 min 1,0 C 1,4 C
09.11.2011 03:00 1,1 C 97 % 1016 hPa 0,0 l/m 2,9 km/h (1 Bft) N-NW67.5 340 0 min 0 lux 0 min 0,7 C 1,1 C
09.11.2011 03:15 0,8 C 97 % 1017 hPa 0,0 l/m 0,0 km/h (0 Bft) W-SW 245 0 min 0 lux 0 min 0,4 C 0,8 C
09.11.2011 03:30 0,7 C 97 % 1017 hPa 0,0 l/m 0,0 km/h (0 Bft) W-SW 245 0 min 0 lux 0 min 0,3 C 0,7 C
09.11.2011 03:45 0,6 C 97 % 1017 hPa 0,0 l/m 2,8 km/h (1 Bft) W-SW 245 0 min 0 lux 0 min 0,2 C 0,6 C
09.11.2011 04:00 0,3 C 97 % 1016 hPa 0,0 l/m 0,0 km/h (0 Bft) W-SW 245 0 min 0 lux 0 min -0,1 C 0,3 C
09.11.2011 04:15 0,1 C 97 % 1016 hPa 0,0 l/m 0,0 km/h (0 Bft) W-SW 245 0 min 0 lux 0 min -0,3 C 0,1 C
09.11.2011 04:30 -0,2 C 97 % 1016 hPa 0,0 l/m 0,0 km/h (0 Bft) W-SW 245 0 min 0 lux 0 min -0,6 C -0,2 C
09.11.2011 04:45 -0,3 C 97 % 1017 hPa 0,0 l/m 0,0 km/h (0 Bft) W-SW 245 0 min 0 lux 0 min -0,7 C -0,3 C
09.11.2011 05:00 -0,5 C 97 % 1017 hPa 0,0 l/m 0,0 km/h (0 Bft) W-SW 245 0 min 0 lux 0 min -0,9 C -0,5 C
09.11.2011 05:15 -0,4 C 98 % 1017 hPa 0,0 l/m 0,0 km/h (0 Bft) W-SW 245 0 min 0 lux 0 min -0,7 C -0,4 C
09.11.2011 05:30 -0,5 C 98 % 1017 hPa 0,0 l/m 0,0 km/h (0 Bft) W-SW 245 0 min 0 lux 0 min -0,8 C -0,5 C
09.11.2011 05:44 -0,3 C 98 % 1017 hPa 0,0 l/m 3,9 km/h (1 Bft) W-SW 245 0 min 0 lux 0 min -0,6 C -0,3 C
09.11.2011 06:00 -0,2 C 98 % 1017 hPa 0,0 l/m 2,1 km/h (1 Bft) W-SW 245 0 min 0 lux 0 min -0,5 C -0,2 C
09.11.2011 06:15 -0,3 C 98 % 1017 hPa 0,0 l/m 0,1 km/h (0 Bft) W-SW 245 0 min 0 lux 0 min -0,6 C -0,3 C
09.11.2011 06:30 -0,4 C 98 % 1017 hPa 0,0 l/m 0,0 km/h (0 Bft) W-SW 245 0 min 0 lux 0 min -0,7 C -0,4 C
09.11.2011 06:45 -0,4 C 98 % 1017 hPa 0,0 l/m 0,3 km/h (0 Bft) W-SW 245 0 min 0 lux 0 min -0,7 C -0,4 C
09.11.2011 07:00 -0,3 C 98 % 1018 hPa 0,0 l/m 0,0 km/h (0 Bft) W-SW 245 0 min 0 lux 0 min -0,6 C -0,3 C
09.11.2011 07:15 0,1 C 98 % 1018 hPa 0,0 l/m 6,1 km/h (2 Bft) W-SW 245 0 min 0 lux 0 min -0,2 C 0,1 C
09.11.2011 07:30 0,2 C 99 % 1017 hPa 0,0 l/m 2,6 km/h (1 Bft) W-SW 245 0 min 413 lux 0 min 0,1 C 0,2 C
09.11.2011 07:45 0,3 C 99 % 1017 hPa 0,0 l/m 0,0 km/h (0 Bft) W-SW 245 0 min 946 lux 0 min 0,2 C 0,3 C
09.11.2011 08:00 0,5 C 98 % 1017 hPa 0,0 l/m 0,0 km/h (0 Bft) W-SW 245 0 min 2,10 klux 0 min 0,2 C 0,5 C
09.11.2011 08:15 0,3 C 98 % 1018 hPa 0,0 l/m 0,0 km/h (0 Bft) W-SW 245 0 min 3,90 klux 0 min 0,0 C 0,3 C
09.11.2011 08:30 0,3 C 98 % 1018 hPa 0,0 l/m 0,0 km/h (0 Bft) W-SW 245 0 min 6,12 klux 0 min 0,0 C 0,3 C
09.11.2011 08:45 0,4 C 98 % 1018 hPa 0,0 l/m 0,0 km/h (0 Bft) W-SW 245 0 min 10,5 klux 0 min 0,1 C 0,4 C
09.11.2011 09:00 0,5 C 99 % 1018 hPa 0,0 l/m 0,0 km/h (0 Bft) W-SW 245 0 min 16,5 klux 0 min 0,4 C 0,5 C
09.11.2011 09:15 0,9 C 99 % 1018 hPa 0,0 l/m 0,0 km/h (0 Bft) W-SW 245 0 min 23,6 klux 0 min 0,8 C 0,9 C
09.11.2011 09:30 1,4 C 99 % 1018 hPa 0,0 l/m 0,0 km/h (0 Bft) W-SW 245 0 min 28,3 klux 0 min 1,3 C 1,4 C
09.11.2011 09:45 2,2 C 99 % 1018 hPa 0,0 l/m 0,0 km/h (0 Bft) W-SW 245 0 min 31,1 klux 0 min 2,1 C 2,2 C
09.11.2011 10:00 3,4 C 99 % 1018 hPa 0,0 l/m 0,0 km/h (0 Bft) W-SW 245 0 min 33,4 klux 0 min 3,3 C 3,4 C
09.11.2011 10:15 4,5 C 99 % 1019 hPa 0,0 l/m 0,0 km/h (0 Bft) W-SW 245 0 min 35,7 klux 0 min 4,4 C 4,5 C
09.11.2011 10:30 5,7 C 99 % 1019 hPa 0,0 l/m 0,0 km/h (0 Bft) W-SW 245 0 min 37,8 klux 0 min 5,6 C 5,7 C
09.11.2011 10:45 6,7 C 99 % 1019 hPa 0,0 l/m 0,0 km/h (0 Bft) W-SW 245 0 min 39,3 klux 0 min 6,6 C 6,7 C
09.11.2011 11:00 7,6 C 99 % 1019 hPa 0,0 l/m 0,0 km/h (0 Bft) W-SW 245 15 min 40,8 klux 0 min 7,5 C 7,6 C
09.11.2011 11:15 8,5 C 99 % 1019 hPa 0,0 l/m 0,0 km/h (0 Bft) W-SW 245 15 min 42,3 klux 0 min 8,4 C 8,5 C
09.11.2011 11:30 9,2 C 99 % 1019 hPa 0,0 l/m 9,4 km/h (2 Bft) W-SW 250 15 min 43,1 klux 0 min 9,1 C 7,1 C
09.11.2011 11:45 9,9 C 99 % 1019 hPa 0,0 l/m 13,1 km/h (3 Bft) W-SW 245 15 min 43,6 klux 0 min 9,8 C 5,9 C
09.11.2011 12:00 10,6 C 98 % 1019 hPa 0,0 l/m 11,6 km/h (2 Bft) W-SW22.5 255 15 min 44,4 klux 0 min 10,3 C 7,4 C
09.11.2011 12:15 11,2 C 97 % 1019 hPa 0,0 l/m 9,8 km/h (2 Bft) SW22.5 230 15 min 44,7 klux 0 min 10,7 C 9,0 C
09.11.2011 12:30 11,6 C 94 % 1019 hPa 0,0 l/m 12,6 km/h (3 Bft) W-SW45 250 15 min 44,6 klux 0 min 10,7 C 8,1 C
09.11.2011 12:45 11,8 C 91 % 1019 hPa 0,0 l/m 12,3 km/h (3 Bft) W-SW22.5 250 15 min 44,5 klux 0 min 10,4 C 8,4 C
09.11.2011 13:00 12,0 C 89 % 1019 hPa 0,0 l/m 17,0 km/h (3 Bft) W-SW22.5 255 15 min 44,1 klux 0 min 10,2 C 6,8 C
09.11.2011 13:15 12,1 C 88 % 1019 hPa 0,0 l/m 16,8 km/h (3 Bft) W-SW 255 15 min 43,6 klux 0 min 10,2 C 7,0 C
09.11.2011 13:30 12,4 C 85 % 1019 hPa 0,0 l/m 16,2 km/h (3 Bft) W-SW 250 15 min 42,6 klux 0 min 9,9 C 7,6 C
09.11.2011 13:45 12,4 C 85 % 1019 hPa 0,0 l/m 13,6 km/h (3 Bft) W-SW 255 15 min 41,7 klux 0 min 9,9 C 8,6 C
09.11.2011 14:00 12,6 C 84 % 1018 hPa 0,0 l/m 14,0 km/h (3 Bft) W-SW22.5 255 15 min 40,2 klux 0 min 10,0 C 8,7 C
09.11.2011 14:15 12,8 C 83 % 1018 hPa 0,0 l/m 9,5 km/h (2 Bft) W-SW22.5 240 0 min 38,6 klux 0 min 10,0 C 10,9 C
09.11.2011 14:30 12,8 C 82 % 1018 hPa 0,0 l/m 3,9 km/h (1 Bft) SW 220 0 min 36,7 klux 0 min 9,8 C 12,8 C
09.11.2011 14:45 12,8 C 81 % 1018 hPa 0,0 l/m 0,3 km/h (0 Bft) SW 220 0 min 34,3 klux 0 min 9,6 C 12,8 C
09.11.2011 15:00 12,8 C 81 % 1018 hPa 0,0 l/m 0,0 km/h (0 Bft) SW 220 0 min 31,8 klux 0 min 9,6 C 12,8 C
09.11.2011 15:15 12,8 C 80 % 1019 hPa 0,0 l/m 0,6 km/h (0 Bft) SW 220 0 min 29,2 klux 0 min 9,4 C 12,8 C
09.11.2011 15:30 12,8 C 80 % 1018 hPa 0,0 l/m 0,4 km/h (0 Bft) SW 220 0 min 26,8 klux 0 min 9,4 C 12,8 C
09.11.2011 15:45 12,5 C 80 % 1019 hPa 0,0 l/m 0,0 km/h (0 Bft) SW 220 0 min 23,5 klux 0 min 9,1 C 12,5 C
09.11.2011 16:00 12,3 C 80 % 1019 hPa 0,0 l/m 2,4 km/h (1 Bft) SW 220 0 min 19,8 klux 0 min 8,9 C 12,3 C
09.11.2011 16:15 12,1 C 81 % 1019 hPa 0,0 l/m 5,2 km/h (1 Bft) W 260 0 min 16,3 klux 0 min 8,9 C 12,1 C
09.11.2011 16:30 11,5 C 82 % 1019 hPa 0,0 l/m 5,4 km/h (1 Bft) W 260 0 min 12,1 klux 0 min 8,5 C 11,5 C
09.11.2011 16:45 10,8 C 82 % 1019 hPa 0,0 l/m 0,0 km/h (0 Bft) W 260 0 min 7,35 klux 0 min 7,9 C 10,8 C
09.11.2011 17:00 9,8 C 83 % 1019 hPa 0,0 l/m 0,3 km/h (0 Bft) W 260 0 min 1,33 klux 0 min 7,1 C 9,8 C
09.11.2011 17:15 9,0 C 84 % 1019 hPa 0,0 l/m 0,0 km/h (0 Bft) W 260 0 min 520 lux 0 min 6,4 C 9,0 C
09.11.2011 17:30 8,2 C 85 % 1019 hPa 0,0 l/m 0,0 km/h (0 Bft) W 260 0 min 76 lux 0 min 5,8 C 8,2 C
09.11.2011 17:45 7,6 C 87 % 1019 hPa 0,0 l/m 0,0 km/h (0 Bft) W 260 0 min 7 lux 0 min 5,6 C 7,6 C
09.11.2011 18:00 7,1 C 87 % 1020 hPa 0,0 l/m 0,0 km/h (0 Bft) W 260 0 min 0 lux 0 min 5,1 C 7,1 C
09.11.2011 18:15 6,3 C 88 % 1020 hPa 0,0 l/m 0,0 km/h (0 Bft) W 260 0 min 0 lux 0 min 4,5 C 6,3 C
09.11.2011 18:30 5,6 C 89 % 1020 hPa 0,0 l/m 0,0 km/h (0 Bft) W 260 0 min 0 lux 0 min 3,9 C 5,6 C
09.11.2011 18:45 4,9 C 89 % 1020 hPa 0,0 l/m 0,0 km/h (0 Bft) W 260 0 min 0 lux 0 min 3,2 C 4,9 C
09.11.2011 19:00 4,4 C 90 % 1020 hPa 0,0 l/m 0,0 km/h (0 Bft) W 260 0 min 0 lux 0 min 2,9 C 4,4 C
09.11.2011 19:15 3,9 C 91 % 1020 hPa 0,0 l/m 0,0 km/h (0 Bft) W 260 0 min 0 lux 0 min 2,6 C 3,9 C
09.11.2011 19:30 3,7 C 91 % 1020 hPa 0,0 l/m 0,0 km/h (0 Bft) W 260 0 min 0 lux 0 min 2,4 C 3,7 C
09.11.2011 19:45 3,5 C 91 % 1020 hPa 0,0 l/m 0,0 km/h (0 Bft) W 260 0 min 0 lux 0 min 2,2 C 3,5 C
09.11.2011 20:00 3,1 C 92 % 1020 hPa 0,0 l/m 0,0 km/h (0 Bft) W 260 0 min 0 lux 0 min 1,9 C 3,1 C
09.11.2011 20:15 2,8 C 93 % 1020 hPa 0,0 l/m 0,0 km/h (0 Bft) W 260 0 min 0 lux 0 min 1,8 C 2,8 C
09.11.2011 20:30 2,5 C 93 % 1020 hPa 0,0 l/m 0,0 km/h (0 Bft) W 260 0 min 0 lux 0 min 1,5 C 2,5 C
09.11.2011 20:45 2,1 C 93 % 1020 hPa 0,0 l/m 0,0 km/h (0 Bft) W 260 0 min 0 lux 0 min 1,1 C 2,1 C
09.11.2011 21:00 1,9 C 93 % 1020 hPa 0,0 l/m 0,0 km/h (0 Bft) W 260 0 min 0 lux 0 min 0,9 C 1,9 C
09.11.2011 21:15 1,7 C 93 % 1020 hPa 0,0 l/m 0,0 km/h (0 Bft) W 260 0 min 0 lux 0 min 0,7 C 1,7 C
09.11.2011 21:30 1,6 C 94 % 1020 hPa 0,0 l/m 0,0 km/h (0 Bft) W 260 0 min 0 lux 0 min 0,7 C 1,6 C
09.11.2011 21:45 1,5 C 94 % 1020 hPa 0,0 l/m 0,0 km/h (0 Bft) W 260 0 min 0 lux 0 min 0,6 C 1,5 C
09.11.2011 22:00 1,3 C 94 % 1020 hPa 0,0 l/m 0,0 km/h (0 Bft) W 260 0 min 0 lux 0 min 0,4 C 1,3 C
09.11.2011 22:15 1,2 C 94 % 1020 hPa 0,0 l/m 0,0 km/h (0 Bft) W 260 0 min 0 lux 0 min 0,3 C 1,2 C
09.11.2011 22:30 1,0 C 95 % 1020 hPa 0,0 l/m 0,0 km/h (0 Bft) W 260 0 min 0 lux 0 min 0,3 C 1,0 C
09.11.2011 22:45 0,8 C 95 % 1020 hPa 0,0 l/m 0,0 km/h (0 Bft) W 260 0 min 0 lux 0 min 0,1 C 0,8 C
09.11.2011 23:00 0,5 C 95 % 1020 hPa 0,0 l/m 0,0 km/h (0 Bft) W 260 0 min 0 lux 0 min -0,2 C 0,5 C
09.11.2011 23:15 0,4 C 95 % 1020 hPa 0,0 l/m 0,0 km/h (0 Bft) W 260 0 min 0 lux 0 min -0,3 C 0,4 C
09.11.2011 23:30 0,3 C 95 % 1020 hPa 0,0 l/m 0,0 km/h (0 Bft) W 260 0 min 0 lux 0 min -0,4 C 0,3 C
09.11.2011 23:45 0,1 C 95 % 1020 hPa 0,0 l/m 0,0 km/h (0 Bft) W 260 0 min 0 lux 0 min -0,6 C 0,1 C
_ Min-Zeit 05:00 15:15 00:45 - 00:00 - - - - - 05:00 05:00
Minimum _ -0,5 C 80 % 1016 hPa - 0,0 km/h (0 Bft) - - - - - -0,9 C -0,5 C
_ Max-Zeit 14:15 07:30 18:00 00:00 13:00 - - 11:00 12:15 00:00 12:15 14:30
Maximum _ 12,8 C 99 % 1020 hPa 0,0 l/m 17,0 km/h
W-SW (3 Bft)
- - 15 min 44,7 klux 0 min 10,7 C 12,8 C
Durchschnitt _ 4,5 C 93 % 1018 hPa #0,0 l/m 2,0 km/h (1 Bft) W-SW - #3:15 h 11,5 klux #0 min. 3,4 C 4,0 C